Погода в Фолкстоне

Великобритания     51°05′09″N   1°10′41″E
темп.,
°C
ветер,
м/с
пор.,
м/с
влажн.,
%
обл.,
%
осадки,
мм/ч
давл.,
гПа
погр.,
м
26 января, вт
вт2600:00+4зсз9127626 0.0 1017475
03:00+4зсз811780 0.0 1018473
06:00+4з797950 0.0 1018454
09:00+5з576999 0.0 1019477
12:00+7зюз91076100 0.3 10191109
15:00+6юз101276100 0.3 10171169
18:00+6ююз131475100 0.3 10151033
21:00+6ююз151889100 0.5 1014774
27 января, ср
ср2700:00+7юз131690100 1.2 1012701
03:00+9з81195100 0.4 1011307
06:00+7зсз6991100 0.4 1012365
09:00+7зсз698798 0.0 1013319
12:00+7з679599 0.0 1014369
15:00+9зюз5691100 0.0 1013236
18:00+9з3591100 0.0 1014122
21:00+9ююв0193100 0.1 101322
28 января, чт
чт2800:00+9ю4597100 2.4 1011187
03:00+9ю7998100 5.1 1007341
06:00+10зюз111797100 9.1 1004447
09:00+10зюз10169397 1.6 1002378
12:00+11зюз10168682 1.7 1004343
15:00+11зюз9148723 0.1 1003282
18:00+10зюз9139148 0.3 1004260
21:00+10зюз81397100 2.8 1002364
29 января, пт
пт2900:00+10з10168593 3.6 1002664
03:00+9з1117833 0.0 1004842
06:00+9з10178638 0.0 1005740
09:00+9з9148843 0.0 1005630
12:00+9з8118332 0.0 1007552
15:00+10з813800 0.3 1007470
18:00+8з7138212 0.4 1008605
21:00+8з9128466 0.0 1005702
30 января, сб
сб3000:00+8з8118583 0.0 1005576
03:00+7з688799 0.1 1006415
06:00+7ссз238896 0.2 1006183
09:00+7всв9992100 0.6 1009456
12:00+6в8884100 1.1 1010422
15:00+6в6681100 0.0 1010416
18:00+6вюв678597 0.1 1011386
21:00+6юв5585100 0.0 1010361